[[{"header":{"parameterUnit":"m.s-1","parameterCategory":1,"la1":30.2991,"la2":30.254,"lo1":-89.0895,"lo2":-89.0444,"dy":0.0017,"dx":0.0017,"nx":28,"ny":28,"refTime":"2024-02-18T09:00:00:Z","depth":0,"parameterNumber":2,"parameterNumberName":"U-component_of_WINDS"},"data":[0,0,0,0,0,0,0,0,0,0,0,0,0,0,0,0,0,0,0,0,0,0,0,0,0,0,0,0,0,0,0,0,0,0,0,0,0,0,0,0,0,0,0,0,0,0,0,0,0,0,0,0,0,0,0,0,0,0,0.031,0.0309,0,0.0247,0.0247,0.0246,0.0258,0.0259,0.026,0.0261,0.0194,0.0191,0.0189,0,0,0,0,0,0,0,0,0,0,0,0,0,0.0439,0.0436,0.031,0.0309,0.0309,0.0247,0.0247,0.0246,0.0258,0.0259,0.0261,0.0262,0.0195,0.0192,0.0188,0,0,0,0,0,0,0,0,0,0,0,0,0,0.038,0.0435,0.031,0.0307,0.0307,0.0248,0.0247,0.0246,0.0258,0.0259,0.0261,0.0263,0.0196,0.0192,0.0188,0.0127,0,0,0.0175,0.0173,0,0,0,0,0,0,0,0,0.0383,0.0375,0.0309,0.0307,0.0306,0.0262,0.0267,0.0206,0.0257,0.0276,0.0261,0.0263,0.0215,0.021,0.0194,0.0124,0.0121,0.0174,0.0172,0.017,0.0169,0,0,0,0,0,0,0,0.0387,0.0378,0.0285,0.0308,0.0306,0.0309,0.0302,0.0256,0.0237,0.0275,0.0275,0.0268,0.0215,0.0198,0.0192,0.012,0.0175,0.0171,0.0168,0.0166,-0.0003,-0.0005,0,0,0,0,0,0,0.0393,0.0381,0.0287,0.0283,0.035,0.0305,0.0298,0.0275,0.0237,0.0233,0.0266,0.0269,0.0204,0.0197,0.019,0.0116,0.017,0.0166,0.0164,-0.0001,-0.0003,-0.0006,0,0,0,0,0,0,0.0395,0.0384,0.029,0.0333,0.0321,0.0301,0.0275,0.0273,0.0256,0.0231,0.0228,0.0253,0.0206,0.0196,0.0143,0.0114,0.0164,0.016,0.0001,-0.0002,-0.0004,-0.0033,0,0,0,0,0,0,0.0399,0.0385,0.0362,0.0332,0.0318,0.0244,0.0273,0.027,0.0248,0.0251,0.0217,0.0213,0.0206,0.0149,0.0139,0.0109,0.0157,0.0004,-0.0,-0.0004,-0.003,-0.0037,-0.0043,0,0,0,0,0,0.0404,0.0356,0.0361,0.0349,0.0289,0.0242,0.0234,0.0228,0.0246,0.0222,0.0207,0.0214,0.0119,0.0144,0.0132,0.01,0.0005,0.0001,-0.0003,-0.0027,-0.0035,-0.0042,0,0,0,0,0,0,0.0382,0.0352,0.0357,0.0298,0.0273,0.0244,0.0214,0.0219,0.0187,0.019,0.0183,0.0175,0.0121,0.0106,0.0133,0.0039,0.0065,0.0058,0.0051,0.0043,0.0036,0.004,0.0153,0,0,0,0,0,0.0371,0.0336,0.0311,0.0262,0.0249,0.0234,0.0213,0.0211,0.0183,0.0172,0.0153,0.0126,0.009,0.0066,0.0031,-0.0031,-0.0039,-0.0058,-0.0065,-0.007,-0.0077,-0.0111,-0.0121,-0.002,-0.002,-0.002,0,0,0.0346,0.0326,0.0304,0.0257,0.0237,0.02,0.0225,0.0184,0.0157,0.0166,0.0114,0.0099,0.0068,0.001,-0.0016,-0.0004,-0.0106,-0.0075,-0.0079,-0.0084,-0.0117,-0.0126,-0.0135,-0.0023,-0.0022,-0.0022,0,0,0.0282,0.0264,0.022,0.02,0.017,0.0161,0.015,0.0121,0.0112,0.0061,0.0067,0.0034,-0.0028,-0.0051,-0.007,-0.014,-0.0135,-0.0151,-0.0186,-0.022,-0.0228,-0.0235,-0.0262,-0.0271,-0.0157,-0.0157,-0.0158,0,0.0255,0.02,0.0197,0.0156,0.0135,0.0144,0.0099,0.008,0.0039,0.0024,0.0039,-0.0038,-0.0058,-0.0122,-0.0139,-0.0154,-0.0167,-0.0149,-0.0226,-0.0233,-0.024,-0.0266,-0.0275,-0.0159,-0.0159,-0.0159,-0.0159,0,0.0168,0.013,0.0099,0.006,0.0036,-0.0006,-0.0017,-0.0041,-0.0041,-0.0052,-0.0104,-0.0128,-0.0167,-0.0182,-0.0182,-0.0245,-0.0237,-0.0224,-0.0199,-0.0252,-0.0276,-0.0285,-0.0162,-0.0161,-0.0161,-0.016,0,0,0.0086,0.0048,0.0036,0.0019,-0.0013,-0.0043,-0.0084,-0.0122,-0.0143,-0.017,-0.0207,-0.0258,-0.0246,-0.0268,-0.0271,-0.03,-0.0356,-0.0283,-0.0284,-0.0298,-0.0428,-0.0439,-0.0451,-0.0351,-0.0353,-0.0354,-0.0426,0,0.0018,-0.0056,-0.0059,-0.0127,-0.0162,-0.0153,-0.019,-0.0214,-0.0225,-0.0257,-0.0269,-0.0306,-0.0286,-0.03,-0.0328,-0.0343,-0.0382,-0.0337,-0.0387,-0.0388,-0.0382,-0.0463,-0.0475,-0.0542,-0.0435,-0.0437,-0.0438,0,-0.0073,-0.0102,-0.0172,-0.0199,-0.0214,-0.0247,-0.0281,-0.0311,-0.0338,-0.0344,-0.0367,-0.0366,-0.0409,-0.038,-0.0441,-0.041,-0.043,-0.044,-0.0443,-0.045,-0.0418,-0.0474,-0.0563,-0.0574,-0.0453,-0.0451,-0.045,0,-0.0128,-0.0184,-0.0234,-0.0249,-0.028,-0.0304,-0.0318,-0.0343,-0.0365,-0.0395,-0.0409,-0.0444,-0.0463,-0.049,-0.0498,-0.0476,-0.0559,-0.0531,-0.0567,-0.0567,-0.0587,-0.0586,-0.0683,-0.0596,-0.0595,-0.0595,-0.0595,0,-0.0205,-0.0249,-0.0259,-0.029,-0.0339,-0.0342,-0.0391,-0.0404,-0.0425,-0.0459,-0.0453,-0.0485,-0.0492,-0.0525,-0.0531,-0.0581,-0.059,-0.0597,-0.0598,-0.0599,-0.0598,-0.0614,-0.061,-0.0598,-0.0597,-0.0597,-0.0596,0,-0.0276,-0.0285,-0.0339,-0.0363,-0.037,-0.0405,-0.0427,-0.0457,-0.0466,-0.0508,-0.0519,-0.0533,-0.0572,-0.0582,-0.0628,-0.0632,-0.0692,-0.0688,-0.0683,-0.0684,-0.072,-0.0717,-0.0832,-0.0848,-0.0748,-0.0749,-0.075,0,-0.0327,-0.036,-0.0388,-0.0409,-0.0425,-0.0459,-0.0482,-0.0485,-0.0509,-0.0541,-0.0567,-0.0605,-0.0636,-0.0698,-0.0713,-0.0749,-0.0747,-0.0785,-0.0753,-0.0752,-0.075,-0.0749,-0.0753,-0.0792,-0.0793,-0.0794,-0.0794,0,-0.0415,-0.0417,-0.0449,-0.0482,-0.0508,-0.0535,-0.056,-0.0578,-0.0585,-0.0612,-0.0651,-0.0675,-0.0721,-0.076,-0.0795,-0.081,-0.0805,-0.0804,-0.0814,-0.0817,-0.0813,-0.0818,-0.0702,-0.0802,-0.0801,-0.0801,-0.08,-0.08,-0.0479,-0.0509,-0.0533,-0.0568,-0.0587,-0.061,-0.064,-0.0652,-0.0684,-0.0722,-0.0722,-0.0765,-0.079,-0.0837,-0.0854,-0.0888,-0.0877,-0.0891,-0.0896,-0.09,-0.0904,-0.0805,-0.0894,-0.0894,-0.0894,-0.0893,-0.0893,0,-0.057,-0.0584,-0.0616,-0.0651,-0.0679,-0.0669,-0.0696,-0.072,-0.0758,-0.0781,-0.0811,-0.0856,-0.0892,-0.0909,-0.0946,-0.097,-0.0968,-0.0979,-0.0979,-0.0983,-0.0911,-0.0899,-0.098,-0.098,-0.098,-0.098,-0.098,-0.098,-0.062,-0.067,-0.0674,-0.0733,-0.0747,-0.0789,-0.0805,-0.0827,-0.0846,-0.0896,-0.0926,-0.0936,-0.0957,-0.0995,-0.1028,-0.1032,-0.1047,-0.106,-0.1063,-0.0996,-0.0988,-0.0979,-0.0969,-0.1062,-0.1063,-0.1132,-0.1133,-0.1133]},{"header":{"parameterUnit":"m.s-1","parameterCategory":1,"la1":30.2991,"la2":30.254,"lo1":-89.0895,"lo2":-89.0444,"dy":0.0017,"dx":0.0017,"nx":28,"ny":28,"refTime":"2024-02-18T09:00:00:Z","depth":0,"parameterNumber":3,"parameterNumberName":"V-component_of_WINDS"},"data":[0,0,0,0,0,0,0,0,0,0,0,0,0,0,0,0,0,0,0,0,0,0,0,0,0,0,0,0,0,0,0,0,0,0,0,0,0,0,0,0,0,0,0,0,0,0,0,0,0,0,0,0,0,0,0,0,0,0,-4.743,-4.7432,0,-4.7577,-4.7579,-4.758,-4.7521,-4.7518,-4.7515,-4.7511,-4.7659,-4.7666,-4.7673,0,0,0,0,0,0,0,0,0,0,0,0,0,-4.7096,-4.7102,-4.743,-4.7432,-4.7434,-4.7577,-4.7579,-4.7581,-4.7522,-4.7518,-4.7514,-4.751,-4.7657,-4.7665,-4.7674,0,0,0,0,0,0,0,0,0,0,0,0,0,-4.7242,-4.7105,-4.743,-4.7422,-4.7423,-4.7576,-4.7579,-4.7581,-4.7523,-4.7518,-4.7513,-4.7508,-4.7654,-4.7664,-4.7675,-4.7844,0,0,-4.7708,-4.7712,0,0,0,0,0,0,0,0,-4.7234,-4.7254,-4.7421,-4.7423,-4.7424,-4.7526,-4.7515,-4.7669,-4.7524,-4.7485,-4.7511,-4.7505,-4.7619,-4.7632,-4.7671,-4.7851,-4.7858,-4.7709,-4.7715,-4.772,-4.7723,0,0,0,0,0,0,0,-4.7224,-4.7247,-4.7488,-4.7424,-4.7425,-4.741,-4.7425,-4.7544,-4.7579,-4.7488,-4.7484,-4.7502,-4.7618,-4.7661,-4.7674,-4.786,-4.7708,-4.7718,-4.7725,-4.7729,-4.8185,-4.819,0,0,0,0,0,0,-4.7213,-4.7239,-4.7483,-4.7492,-4.7314,-4.742,-4.7437,-4.7498,-4.7577,-4.7585,-4.7506,-4.7499,-4.7645,-4.7661,-4.7679,-4.7882,-4.772,-4.773,-4.7736,-4.8179,-4.8186,-4.8192,0,0,0,0,0,0,-4.7207,-4.7236,-4.7477,-4.7365,-4.7395,-4.7431,-4.7501,-4.7504,-4.7546,-4.7592,-4.7597,-4.7543,-4.7641,-4.7664,-4.7803,-4.7886,-4.7735,-4.7744,-4.8172,-4.8181,-4.8189,-4.8289,0,0,0,0,0,0,-4.7197,-4.7234,-4.7299,-4.7367,-4.7401,-4.7601,-4.7506,-4.751,-4.7565,-4.7556,-4.7628,-4.7635,-4.7639,-4.7788,-4.7814,-4.7898,-4.7753,-4.8165,-4.8176,-4.8186,-4.8279,-4.83,-4.8318,0,0,0,0,0,-4.7186,-4.7322,-4.7303,-4.7333,-4.7484,-4.7606,-4.7625,-4.7629,-4.7572,-4.7637,-4.7666,-4.7632,-4.7872,-4.7803,-4.7832,-4.792,-4.816,-4.8173,-4.8186,-4.827,-4.8296,-4.8318,0,0,0,0,0,0,-4.7263,-4.733,-4.7311,-4.7473,-4.7534,-4.7596,-4.7679,-4.7656,-4.7735,-4.7723,-4.7723,-4.774,-4.7884,-4.7915,-4.7837,-4.8087,-4.8007,-4.8027,-4.8061,-4.8087,-4.8106,-4.8095,-4.7762,0,0,0,0,0,-4.7298,-4.7393,-4.7447,-4.7584,-4.7616,-4.7643,-4.7696,-4.7693,-4.7756,-4.7782,-4.7821,-4.7883,-4.7972,-4.8031,-4.8116,-4.8282,-4.8296,-4.8357,-4.8377,-4.8393,-4.841,-4.8499,-4.8527,-4.8234,-4.8234,-4.8234,0,0,-4.7374,-4.7422,-4.7482,-4.7601,-4.7648,-4.7745,-4.7665,-4.7771,-4.7842,-4.7797,-4.7932,-4.7963,-4.8032,-4.8185,-4.8255,-4.8216,-4.8493,-4.8409,-4.8422,-4.843,-4.8515,-4.8543,-4.8567,-4.8243,-4.8241,-4.824,0,0,-4.756,-4.7607,-4.7726,-4.7775,-4.7847,-4.7864,-4.7892,-4.7958,-4.7977,-4.8112,-4.808,-4.8164,-4.8318,-4.8368,-4.8413,-4.8617,-4.8588,-4.8644,-4.8748,-4.8835,-4.8858,-4.8879,-4.8951,-4.8977,-4.8661,-4.8661,-4.8661,0,-4.7644,-4.779,-4.779,-4.7899,-4.7952,-4.7916,-4.8036,-4.8083,-4.8179,-4.8216,-4.8171,-4.8363,-4.8407,-4.8571,-4.8621,-4.8659,-4.8691,-4.8637,-4.8855,-4.8876,-4.8895,-4.8963,-4.899,-4.8667,-4.8667,-4.8666,-4.8665,0,-4.7889,-4.799,-4.8078,-4.8172,-4.8234,-4.8348,-4.8365,-4.8428,-4.8419,-4.844,-4.8577,-4.8628,-4.8722,-4.876,-4.8753,-4.8924,-4.8897,-4.8854,-4.8774,-4.8929,-4.8993,-4.902,-4.8676,-4.8674,-4.8672,-4.8671,0,0,-4.8129,-4.8222,-4.8254,-4.8295,-4.8372,-4.845,-4.8561,-4.8653,-4.8707,-4.8774,-4.8867,-4.8997,-4.8957,-4.9009,-4.9006,-4.9083,-4.924,-4.903,-4.9031,-4.9067,-4.943,-4.9462,-4.9493,-4.9221,-4.9226,-4.923,-4.9424,0,-4.8321,-4.8518,-4.8521,-4.8701,-4.8794,-4.876,-4.8857,-4.8913,-4.8935,-4.9016,-4.9039,-4.9132,-4.9072,-4.9103,-4.9177,-4.9205,-4.9313,-4.9191,-4.9306,-4.931,-4.929,-4.9526,-4.9561,-4.9742,-4.9449,-4.9454,-4.9457,0,-4.8572,-4.8648,-4.8837,-4.8899,-4.8938,-4.9025,-4.9109,-4.9187,-4.925,-4.926,-4.9318,-4.9303,-4.9415,-4.9331,-4.9485,-4.9402,-4.9449,-4.9469,-4.9476,-4.9487,-4.9393,-4.9544,-4.98,-4.9828,-4.9496,-4.9493,-4.949,0,-4.8728,-4.8877,-4.9009,-4.9046,-4.9122,-4.9183,-4.9218,-4.9275,-4.933,-4.9403,-4.9438,-4.9523,-4.957,-4.9635,-4.9643,-4.9581,-4.9797,-4.9714,-4.9808,-4.9808,-4.9856,-4.9853,-5.0123,-4.9886,-4.9886,-4.9885,-4.9884,0,-4.8943,-4.906,-4.908,-4.9162,-4.9291,-4.9293,-4.942,-4.9449,-4.9501,-4.9586,-4.9561,-4.9642,-4.9647,-4.973,-4.9736,-4.9862,-4.9883,-4.9894,-4.9894,-4.9897,-4.9895,-4.9928,-4.9915,-4.9892,-4.9891,-4.9889,-4.9888,0,-4.9139,-4.9158,-4.93,-4.9359,-4.9377,-4.947,-4.952,-4.9597,-4.9615,-4.9724,-4.9749,-4.9778,-4.9874,-4.9888,-5.0,-5.0004,-5.0155,-5.0142,-5.0134,-5.0132,-5.0225,-5.0216,-5.0527,-5.0567,-5.0303,-5.0306,-5.0308,0,-4.9275,-4.9364,-4.9433,-4.9489,-4.9527,-4.9617,-4.9672,-4.9676,-4.9735,-4.9813,-4.988,-4.9973,-5.0048,-5.0201,-5.0232,-5.0316,-5.0306,-5.0408,-5.0318,-5.0317,-5.0307,-5.0302,-5.031,-5.0426,-5.0429,-5.0431,-5.0433,0,-4.9514,-4.9518,-4.96,-4.9685,-4.9752,-4.9819,-4.9882,-4.9929,-4.9941,-5.0008,-5.0105,-5.0163,-5.0277,-5.0369,-5.0453,-5.0486,-5.0462,-5.0461,-5.0487,-5.049,-5.0482,-5.0487,-5.0181,-5.0454,-5.0452,-5.045,-5.0449,-5.0448,-4.9684,-4.9762,-4.9822,-4.9914,-4.9961,-5.002,-5.0095,-5.0123,-5.0205,-5.0298,-5.0295,-5.0402,-5.046,-5.0571,-5.061,-5.0693,-5.0659,-5.0697,-5.0707,-5.0716,-5.0725,-5.0469,-5.0708,-5.0707,-5.0707,-5.0706,-5.0706,0,-4.9922,-4.9959,-5.0043,-5.0132,-5.0203,-5.0174,-5.0241,-5.0303,-5.0398,-5.0455,-5.0528,-5.064,-5.0728,-5.0765,-5.0852,-5.0911,-5.0902,-5.0934,-5.093,-5.0938,-5.0751,-5.0719,-5.094,-5.094,-5.094,-5.094,-5.094,-5.094,-5.0054,-5.0183,-5.0194,-5.0346,-5.0381,-5.0487,-5.0528,-5.0582,-5.0627,-5.0753,-5.0826,-5.085,-5.0899,-5.0988,-5.1068,-5.1076,-5.1109,-5.1146,-5.115,-5.0975,-5.0951,-5.0928,-5.0899,-5.1154,-5.1154,-5.133,-5.1331,-5.1333]}]]